Hourly Data Report for April 16, 2020

NANAIMO A
BRITISH COLUMBIA
Current Station Operator: NAVCAN

49°03'16.000" N
123°52'12.000" W
28.00 m
1025365
YCD

Download Data

Hourly Data (April 2020)
Hourly Data Report for April 16, 2020
TIME
LST
Temp Definition
°C
Dew Point Definition
°C
Rel Hum Definition
%
Precip. Amount Definition
mm

Wind Dir Definition
10's deg

Wind Spd Definition
km/h
Visibility Definition
km
Stn Press Definition
kPa
Hmdx Definition


Wind Chill Definition


Weather Definition


00:00 5.6 0.2 68 LegendMM 17 7 LegendMM 102.19     LegendNANA
01:00 5.5 -0.2 67 LegendMM 11 4 LegendMM 102.19     LegendNANA
02:00 4.4 -0.2 72 LegendMM 20 1 LegendMM 102.22     LegendNANA
03:00 4.0 -0.1 74 LegendMM 19 4 LegendMM 102.24     LegendNANA
04:00 3.0 -0.2 80 LegendMM 19 5 LegendMM 102.27     LegendNANA
05:00 3.1 0.0 80 LegendMM 18 3 LegendMM 102.27     LegendNANA
06:00 2.9 -0.1 81 LegendMM 16 1 LegendMM 102.28     LegendNANA
07:00 6.8 2.0 72 LegendMM 8 1 LegendMM 102.29     LegendNANA
08:00 11.4 2.6 54 LegendMM 13 4 LegendMM 102.28     LegendNANA
09:00 14.1 2.9 46 LegendMM 16 5 LegendMM 102.29     LegendNANA
10:00 16.5 -0.2 32 LegendMM 15 10 LegendMM 102.23     LegendNANA
11:00 17.4 -1.2 28 LegendMM 12 12 LegendMM 102.21     LegendNANA
12:00 17.9 -0.3 29 LegendMM 13 14 LegendMM 102.15     LegendNANA
13:00 18.2 -0.4 28 LegendMM 7 15 LegendMM 102.07     LegendNANA
14:00 18.9 -0.5 27 LegendMM 6 16 LegendMM 102.02     LegendNANA
15:00 19.6 -1.9 23 LegendMM 8 8 LegendMM 101.95     LegendNANA
16:00 19.4 -1.8 24 LegendMM 14 4 LegendMM 101.88     LegendNANA
17:00 19.3 -2.4 23 LegendMM 16 10 LegendMM 101.78     LegendNANA
18:00 17.9 0.4 30 LegendMM 16 8 LegendMM 101.72     LegendNANA
19:00 16.7 -2.6 26 LegendMM 22 4 LegendMM 101.66     LegendNANA
20:00 12.9 1.7 46 LegendMM 19 1 LegendMM 101.65     LegendNANA
21:00 12.9 0.8 43 LegendMM 26 13 LegendMM 101.62     LegendNANA
22:00 10.7 2.2 56 LegendMM 30 6 LegendMM 101.62     LegendNANA
23:00 10.1 1.6 55 LegendMM 29 6 LegendMM 101.56     LegendNANA

Notes on Data Quality.

Legend

  • E = Estimated
  • M = Missing
  • NA = Not Available*
  • [empty] = Indicates an unobserved value
Date modified: